Погода в Пуяне

Китай     30°58′42″N   103°56′22″E
темп.,
°C
ветер,
м/с
пор.,
м/с
влажн.,
%
обл.,
%
осадки,
мм/ч
давл.,
гПа
погр.,
м
13 апреля, вт
вт1323:00+16с2273100 0.0 101821
02:00+16всв007492 0.0 101710
05:00+15ю117796 0.0 101611
08:00+16зсз117555 0.0 101779
11:00+18в1169100 0.1 1017489
14:00+21св215864 0.5 10141228
17:00+18всв3473100 1.7 1013519
20:00+16св4886100 2.3 1015264
14 апреля, ср
ср1423:00+15св4892100 0.2 1018431
02:00+14св4995100 2.9 1017585
05:00+14св1395100 2.6 1017260
08:00+14в1194100 3.0 101883
11:00+15вюв1281100 0.5 1018304
14:00+14сз1182100 1.1 1016214
17:00+15с2374100 0.0 1015601
20:00+13з1188100 0.1 101511
15 апреля, чт
чт1523:00+12з1188100 0.0 101710
02:00+11ссв229231 0.0 101637
05:00+10с22902 0.0 101517
08:00+12ссв358259 0.0 1018206
11:00+16с2368100 0.0 1019325
14:00+15юз2380100 0.0 101883
17:00+16зюз3474100 0.0 1017138
20:00+15з2266100 0.0 101825
16 апреля, пт
пт1623:00+13зсз2279100 0.3 102339
02:00+13з3573100 0.4 1021109
05:00+12зюз378199 0.0 1020144
08:00+13ююз247998 0.0 1022212
11:00+17ю336266 0.0 1023699
14:00+19ююв435463 0.1 10201364
17:00+16вюв3360100 0.0 1019495
20:00+14в1273100 0.0 102248
17 апреля, сб
сб1723:00+14юз2374100 0.0 102381
02:00+12зюз2284100 0.0 102237
05:00+12зюз1188100 0.0 102112
08:00+13св1283100 0.0 1022160
11:00+17вюв226699 0.1 10221045
14:00+18ссв116199 0.3 10201031
17:00+18ссз2165100 0.2 1018649
20:00+16ссз2271100 0.3 101936